Regional Weather Roundup
Issued by NWS

Home | Current Version | Previous Version | Text Only | Print | Product List | Glossary On
Versions: 1 2 3 4 5 6 7 8 9 10 11 12 13 14 15 16 17 18 19 20 21 22 23 24 25 26 27 28 29 30 31 32 33 34 35 36 37 38 39 40 41 42 43 44 45 46 47 48 49 50
000
ASUS43 KDTX 092110
RWRMI
MICHIGAN HOURLY REGIONAL WEATHER ROUNDUP
NATIONAL WEATHER SERVICE DETROIT/PONTIAC MI
ISSUED BY NATIONAL WEATHER SERVICE GRAND RAPIDS MI
400 PM EST FRI DEC 09 2016

NOTE: "FAIR" INDICATES FEW OR NO CLOUDS BELOW 12,000 FEET WITH NO
SIGNIFICANT WEATHER AND/OR OBSTRUCTION TO VISIBILITY.

MIZ047>049-052>055-059>063-066>070-074>076-081>083-092200-
SOUTHEAST LOWER MICHIGAN

CITY           SKY/WX    TMP DP  RH WIND       PRES   REMARKS
ADRIAN         LGT SNOW  27  23  85 NW8       30.41R FOG     WCI  19
ALMA           CLOUDY    29  13  50 W12       30.37R WCI  19
ANN ARBOR      CLOUDY    29  20  69 W8        30.38R WCI  21
BAD AXE        LGT SNOW  27  19  73 W6        30.34R WCI  20
DETROIT CITY   CLOUDY    31  12  45 W8        30.37R WCI  23
DETROIT        CLOUDY    30  15  53 W12       30.39R WCI  20
FLINT          CLOUDY    29  12  49 W17       30.36R WCI  17
GROSSE ILE     CLOUDY    30  19  63 W8        30.37S WCI  23
HILLSDALE      LGT SNOW  27  21  80 W13       30.38R WCI  16
HOWELL         CLOUDY    28  17  63 W13       30.36R WCI  18

CITY           SKY/WX    TMP DP  RH WIND       PRES   REMARKS
JACKSON        CLOUDY    27  17  66 W10       30.38R WCI  17
LANSING        CLOUDY    26  19  74 W8        30.39R WCI  18
MASON          CLOUDY    26  22  87 W8        30.38S FOG     WCI  17
MONROE         LGT SNOW  29  25  84 NW8       30.39R WCI  21
MT. CLEMENS    MOCLDY    31   9  40 W15G22    30.34R WCI  20
PONTIAC        CLOUDY    28  13  53 W15G25    30.34R WCI  16
PORT HOPE        N/A     28  18  66 W8        30.31R WCI  20
PORT HURON     CLOUDY    27  21  80 W6        30.35S WCI  20
TRI CITIES     CLOUDY    29  16  58 W14       30.35R WCI  18
YPSILANTI      CLOUDY    31  18  58 W13       30.38R WCI  21
$$
MIZ043>046-050>051-056>058-064>065-071>073-077>080-092200-
SOUTHWEST LOWER MICHIGAN

CITY           SKY/WX    TMP DP  RH WIND       PRES   REMARKS
BATTLE CREEK   FLURRIES  26  20  77 W14       30.41R WCI  14
BENTON HARBOR  FLURRIES  27  17  66 W13       30.46S WCI  16
BIG RAPIDS     CLOUDY    26  15  62 W10       30.35R WCI  16
COLDWATER      CLOUDY    27  21  79 W10G16    30.42R WCI  17
HOLLAND        CLOUDY    27  17  66 W14       30.43S WCI  16
GRAND RAPIDS   LGT SNOW  25  20  81 W10       30.41R WCI  15
KALAMAZOO      LGT SNOW  26  19  74 W7        30.42R WCI  18
MARSHALL       CLOUDY    26  19  75 W12       30.40R WCI  16
MOUNT PLEASANT CLOUDY    28  14  54 W12       30.34R WCI  18
MUSKEGON       FLURRIES  27  16  63 W9        30.42S WCI  18
STURGIS        CLOUDY    27  19  71 W14G20    30.42R WCI  16
$$
MIZ016>042-092200-
NORTHERN LOWER MICHIGAN

CITY           SKY/WX    TMP DP  RH WIND       PRES   REMARKS
ALPENA         MOCLDY    24  13  62 N6        30.33R WCI  17
BEAVER ISLAND  CLOUDY    26  15  63 NW8       30.32S WCI  18
BELLAIRE       LGT SNOW  26  24  92 CALM      30.34R
CADILLAC       LGT SNOW  24  18  77 W13G20    30.29R WCI  13
CHARLEVOIX     LGT SNOW  28  18  66 NW10      30.35R WCI  18
GAYLORD        CLOUDY    24  13  62 VRB3      30.27R
HOUGHTON LAKE  LGT SNOW  24  19  81 W8        30.30S WCI  15
MANISTEE       FLURRIES  26  17  68 W15       30.37R WCI  14
OSCODA         CLOUDY    28  15  56 NW5       30.32R WCI  23
PELLSTON       LGT SNOW  24  18  77 N8        30.33R WCI  15
TRAVERSE CITY  HVY SNOW  26  23  88 NW13      30.34R VSB 1/4 WCI  15
LUDINGTON      FLURRIES  26  16  66 W7        30.40R WCI  18
$$
MIZ007>008-015-092200-
EASTERN UPPER MICHIGAN

CITY           SKY/WX    TMP DP  RH WIND       PRES   REMARKS
KINROSS        CLOUDY    21  12  68 CALM      30.32R
MACKINAC ISLAN CLOUDY    23  16  76 N6        30.31S WCI  15
NEWBERRY       LGT SNOW  21  16  81 N6        30.31R WCI  13
S. S. MARIE    LGT SNOW  20  13  74 CALM      30.31F
$$
MIZ004>006-011>014-085-092200-
CENTRAL UPPER MICHIGAN

CITY           SKY/WX    TMP DP  RH WIND       PRES   REMARKS
MANISTIQUE     LGT SNOW  22  22  98 NW6       30.33S VSB 3/4 WCI  15
ESCANABA       FLURRIES  25  10  53 NW9       30.37R WCI  15
MENOMINEE      CLOUDY    25   8  48 NW8       30.40R WCI  16
SAWYER-GWINN   CLOUDY    19   9  63 NW13G18   30.33R WCI   7
$$
MIZ001>003-009>011-084-092200-
WESTERN UPPER MICHIGAN

CITY           SKY/WX    TMP DP  RH WIND       PRES   REMARKS
IRON MOUNTAIN  MOCLDY    21   5  50 NW8       30.34S WCI  11
HOUGHTON       CLOUDY    18   7  62 NW8       30.34R WCI   8
COPPER HARBOR    N/A     22  17  81 N16       30.37R WCI   8
IRONWOOD       FLURRIES  14   7  73 W8        30.41R WCI   3
$$

ABBREVIATIONS USED IN REMARKS
   TC - TEMPERATURE IN CELSIUS
  WCI - WIND CHILL INDEX
   HX - HEAT INDEX
  VSB - VISIBILITY





USA.gov is the U.S. government's official web portal to all federal, state and local government web resources and services.